Tracking 27380 objects as of 5-Jun-2023
HD Live streaming from Space Station
objects crossing your sky now

DELTA 1 DEB

Track DELTA 1 DEB now!
10-day predictions


NORAD ID: 7021
Int'l Code: 1973-086M
Perigee: 1,395.5 km
Apogee: 1,706.0 km
Inclination: 101.7 °
Period: 116.9 minutes
Semi major axis: 7921 km
RCS: 0.1794 m2 (medium)
Launch date: November 6, 1973
Source: United States (US)
Launch site: AIR FORCE WESTERN TEST RANGE (AFWTR)

Note: This is SATELLITE DEBRIS
Your satellite tracking list
Your tracking list is empty




NASA's NSSDC Master Catalog

Two Line Element Set (TLE):
1  7021U 73086M   23156.45799951  .00000353  00000-0  30893-2 0  9996
2  7021 101.6672 239.0197 0195977 126.7084 299.7490 12.31317084213064
Source of the keplerian elements: AFSPC